TimeMST,TemperatureF,Dew PointF,Humidity,Sea Level PressureIn,VisibilityMPH,Wind Direction,Wind SpeedMPH,Gust SpeedMPH,PrecipitationIn,Events,Conditions,WindDirDegrees,DateUTC
12:53 AM,79.0,19.9,11,29.74,10.0,West,4.6,-,N/A,,Clear,270,2013-06-06 07:53:00
1:53 AM,77.0,21.0,12,29.74,10.0,West,4.6,-,N/A,,Clear,270,2013-06-06 08:53:00
2:53 AM,73.9,21.9,14,29.75,10.0,WNW,3.5,-,N/A,,Clear,290,2013-06-06 09:53:00
3:53 AM,69.1,24.1,18,29.77,10.0,Calm,Calm,-,N/A,,Clear,0,2013-06-06 10:53:00
4:53 AM,69.1,23.0,18,29.77,10.0,Calm,Calm,-,N/A,,Clear,0,2013-06-06 11:53:00
5:53 AM,73.0,23.0,15,29.78,10.0,NNW,3.5,-,N/A,,Clear,330,2013-06-06 12:53:00
6:53 AM,73.9,23.0,15,29.80,10.0,SSE,3.5,-,N/A,,Clear,150,2013-06-06 13:53:00
7:53 AM,79.0,21.9,12,29.81,10.0,Variable,3.5,-,N/A,,Clear,0,2013-06-06 14:53:00
8:53 AM,82.9,23.0,11,29.81,10.0,ENE,3.5,-,N/A,,Clear,70,2013-06-06 15:53:00
9:53 AM,86.0,21.9,10,29.80,10.0,ENE,3.5,-,N/A,,Clear,70,2013-06-06 16:53:00
10:53 AM,89.1,18.0,7,29.79,10.0,Variable,3.5,-,N/A,,Clear,0,2013-06-06 17:53:00
11:53 AM,90.0,17.1,7,29.78,10.0,Calm,Calm,-,N/A,,Clear,0,2013-06-06 18:53:00
12:53 PM,93.0,18.0,6,29.76,10.0,Variable,5.8,-,N/A,,Clear,0,2013-06-06 19:53:00
1:53 PM,95.0,19.9,7,29.72,10.0,NNE,10.4,-,N/A,,Clear,30,2013-06-06 20:53:00
2:53 PM,96.1,19.9,6,29.70,10.0,Calm,Calm,-,N/A,,Clear,0,2013-06-06 21:53:00
3:53 PM,96.1,19.9,6,29.68,10.0,NNE,4.6,-,N/A,,Clear,30,2013-06-06 22:53:00
4:53 PM,98.1,19.0,6,29.65,10.0,NE,12.7,-,N/A,,Clear,50,2013-06-06 23:53:00
5:53 PM,95.0,19.0,6,29.64,10.0,Calm,Calm,-,N/A,,Clear,0,2013-06-07 00:53:00
6:53 PM,93.9,21.0,7,29.65,10.0,NW,5.8,-,N/A,,Clear,310,2013-06-07 01:53:00
7:53 PM,89.1,24.1,9,29.66,10.0,WNW,3.5,-,N/A,,Clear,300,2013-06-07 02:53:00
8:53 PM,89.1,26.1,10,29.69,10.0,Variable,3.5,-,N/A,,Clear,0,2013-06-07 03:53:00
9:53 PM,87.1,19.0,8,29.71,10.0,Variable,4.6,-,N/A,,Clear,0,2013-06-07 04:53:00
10:53 PM,84.9,28.0,13,29.74,10.0,North,6.9,-,N/A,,Clear,350,2013-06-07 05:53:00
11:53 PM,82.9,25.0,12,29.74,10.0,NW,4.6,-,N/A,,Clear,320,2013-06-07 06:53:00